This demonstration page uses our WeatherBlox Daily Observations layout. Learn more.

Left ArrowRight Arrow

39.08367, -84.50855

Hourly Observations for April 23, 2017

Temp ( °F °C ) Dew Point ( °F °C ) Humidity (%) Winds ( mph kmh ) Pressure ( in mb ) Visibility ( mi km ) Precip ( " mm )
12:53 am 00:53 Clear 45 7.2 37 2.8 74 74 NNE 8 13 30.09 1019 10 16 N/A
1:53 am 01:53 Clear 41 5 37 2.8 86 86 NE 6 9 30.07 1018 10 16 N/A
2:53 am 02:53 Clear 40 4.4 39 3.9 97 97 N N/A 30.06 1018 10 16 N/A
3:53 am 03:53 Clear 41 5 37 2.8 86 86 NNE 7 11 30.06 1018 10 16 N/A
4:53 am 04:53 Clear 43 6.1 37 2.8 80 80 NE 8 13 30.06 1018 10 16 N/A
5:53 am 05:53 Clear 42 5.6 37 2.8 82 82 NE 9 15 30.04 1017 10 16 N/A
6:53 am 06:53 Sunny 40 4.4 37 2.8 89 89 NE 7 11 30.04 1017 10 16 N/A
7:53 am 07:53 Sunny 45 7.2 39 3.9 80 80 N N/A 30.05 1018 10 16 N/A
8:53 am 08:53 Sunny 50 10 40 4.4 68 68 NE 7 11 30.04 1017 10 16 N/A
9:53 am 09:53 Sunny 53 11.7 40 4.4 61 61 E 10 17 30.05 1018 10 16 N/A
10:53 am 10:53 Sunny 54 12.2 42 5.6 64 64 NE 10 17 30.06 1018 10 16 N/A
11:53 am 11:53 Sunny 58 14.4 43 6.1 58 58 NNE 13 20 30.04 1017 10 16 N/A
12:53 pm 12:53 Sunny 59 15 43 6.1 56 56 NNE 9 15 30.01 1016 10 16 N/A
1:53 pm 13:53 Sunny 60 15.6 42 5.6 52 52 NNE 14 22 29.99 1016 10 16 N/A
2:53 pm 14:53 Sunny 62 16.7 42 5.6 48 48 NE 14 22 29.98 1015 10 16 N/A
3:53 pm 15:53 Sunny 63 17.2 43 6.1 48 48 NE 12 19 29.97 1015 10 16 N/A
4:53 pm 16:53 Sunny 63 17.2 41 5 45 45 NE 13 20 29.96 1015 10 16 N/A
5:53 pm 17:53 Sunny 63 17.2 43 6.1 48 48 NE 9 15 29.96 1014 10 16 N/A
6:53 pm 18:53 Sunny 62 16.7 43 6.1 50 50 NNE 8 13 29.96 1015 10 16 N/A
7:53 pm 19:53 Sunny 59 15 43 6.1 56 56 NE 5 7 29.96 1015 10 16 N/A
8:53 pm 20:53 Clear 54 12.2 49 9.4 83 83 N N/A 29.97 1015 10 16 N/A
9:53 pm 21:53 Clear 52 11.1 47 8.3 83 83 N N/A 29.98 1015 10 16 N/A
10:53 pm 22:53 Clear 49 9.4 47 8.3 93 93 ENE 3 6 29.99 1016 10 16 N/A
11:53 pm 23:53 Clear 48 8.9 46 7.8 93 93 NNE 5 7 29.97 1015 10 16 N/A

Powered by AerisWeather